User: anonymous   Login
Location: Prague
(50.0830°N, 14.4670°E)
Time: 06:07:19
(UTC+01:00)
Language:

RS-15 - Orbit

View from above orbital plane
View from above orbital plane
View from above satellite
View from above satellite

Ground track
Ground track

The orbit data is extracted from the following two-line orbital elements,

1 23439U 94085A   23080.90821021 -.00000039  00000-0  10000-3 0  9990
2 23439  64.8144  56.8516 0165151 225.4540 133.2795 11.27574073162772
Epoch (UTC): 21 March 2023 21:47:49
Eccentricity: 0.0165151
inclination: 64.8144°
perigee height: 1883 km
apogee height: 2161 km
right ascension of ascending node: 56.8516°
argument of perigee: 225.4540°
revolutions per day: 11.27574073
mean anomaly at epoch: 133.2795°
orbit number at epoch: 16277

The dashed part of the orbit path shows where the satellite is in the earth's shadow,  

DLR